| time (UTC) | temp F | wind direction | speed knots | gust knots | rain 1hr in | rain 24hr in | rain mn in | humidity % | barometer mb |
| 20260506190524 | 69 | 198 | 1.7 | 6.1 | 0.00 | 0.00 | 0.00 | 34 | 1024.3 |
| 20260506190037 | 69 | 203 | 2.6 | 6.1 | 0.00 | 0.00 | 0.00 | 39 | 1024.4 |
| 20260506185520 | 69 | 10 | 1.7 | 6.1 | 0.00 | 0.00 | 0.00 | 36 | 1024.4 |
| 20260506185023 | 68 | 148 | 0.9 | 6.1 | 0.00 | 0.00 | 0.00 | 40 | 1024.4 |
| 20260506184543 | 68 | 113 | 1.7 | 6.1 | 0.00 | 0.00 | 0.00 | 40 | 1024.4 |
| 20260506184023 | 67 | 178 | 2.6 | 4.3 | 0.00 | 0.00 | 0.00 | 38 | 1024.4 |
| 20260506183524 | 67 | 215 | 1.7 | 6.1 | 0.00 | 0.00 | 0.00 | 40 | 1024.4 |
| 20260506183043 | 67 | 168 | 2.6 | 8.7 | 0.00 | 0.00 | 0.00 | 44 | 1024.5 |
| 20260506182523 | 66 | 213 | 3.5 | 8.7 | 0.00 | 0.00 | 0.00 | 45 | 1024.5 |
| 20260506182022 | 66 | 198 | 1.7 | 6.1 | 0.00 | 0.00 | 0.00 | 45 | 1024.4 |
| 20260506181543 | 65 | 168 | 2.6 | 6.1 | 0.00 | 0.00 | 0.00 | 48 | 1024.5 |
| 20260506181021 | 63 | 215 | 1.7 | 4.3 | 0.00 | 0.00 | 0.00 | 55 | 1024.6 |
| 20260506180521 | 63 | 196 | 1.7 | 5.2 | 0.00 | 0.00 | 0.00 | 59 | 1024.6 |
| 20260506180050 | 62 | 213 | 1.7 | 5.2 | 0.00 | 0.00 | 0.00 | 58 | 1024.6 |
| 20260506175524 | 62 | 208 | 2.6 | 5.2 | 0.00 | 0.00 | 0.00 | 56 | 1024.6 |
| 20260506175028 | 61 | 225 | 0.9 | 3.5 | 0.00 | 0.00 | 0.00 | 59 | 1024.6 |
| 20260506174541 | 60 | 212 | 0.9 | 5.2 | 0.00 | 0.00 | 0.00 | 62 | 1024.6 |
| 20260506174025 | 60 | 207 | 0.9 | 5.2 | 0.00 | 0.00 | 0.00 | 65 | 1024.6 |
| 20260506173524 | 59 | 221 | 2.6 | 4.3 | 0.00 | 0.00 | 0.00 | 63 | 1024.7 |
| 20260506173051 | 58 | 0 | 0.9 | 3.5 | 0.00 | 0.00 | 0.00 | 64 | 1024.6 |
| 20260506172525 | 57 | 188 | 0.9 | 3.5 | 0.00 | 0.00 | 0.00 | 68 | 1024.6 |
| 20260506172024 | 56 | 175 | 1.7 | 3.5 | 0.00 | 0.00 | 0.00 | 78 | 1024.6 |
| 20260506171549 | 54 | 175 | 0.9 | 3.5 | 0.00 | 0.00 | 0.00 | 81 | 1024.7 |
| 20260506171023 | 52 | 175 | 0.9 | 4.3 | 0.00 | 0.00 | 0.00 | 86 | 1024.7 |
| 20260506170521 | 51 | 178 | 2.6 | 4.3 | 0.00 | 0.00 | 0.00 | 91 | 1024.8 |
| 20260506170056 | 49 | 165 | 2.6 | 4.3 | 0.00 | 0.00 | 0.00 | 95 | 1024.8 |
| 20260506165521 | 47 | 165 | 1.7 | 4.3 | 0.00 | 0.00 | 0.00 | 97 | 1024.8 |
| 20260506165021 | 47 | 165 | 0.9 | 3.5 | 0.00 | 0.00 | 0.00 | 97 | 1024.8 |
| 20260506164537 | 46 | 165 | 0.9 | 3.5 | 0.00 | 0.00 | 0.00 | 97 | 1024.9 |
| 20260506164022 | 45 | 165 | 0.9 | 4.3 | 0.00 | 0.00 | 0.00 | 97 | 1024.8 |
| 20260506163524 | 44 | 165 | 0.9 | 4.3 | 0.00 | 0.00 | 0.00 | 97 | 1025.0 |
| 20260506163055 | 44 | 165 | 1.7 | 4.3 | 0.00 | 0.00 | 0.00 | 97 | 1024.9 |
| 20260506162527 | 43 | 165 | 1.7 | 4.3 | 0.00 | 0.00 | 0.00 | 97 | 1024.9 |
| 20260506162026 | 43 | 165 | 2.6 | 4.3 | 0.00 | 0.00 | 0.00 | 97 | 1024.9 |
| 20260506161544 | 43 | 165 | 1.7 | 3.5 | 0.00 | 0.00 | 0.00 | 97 | 1024.8 |
| 20260506161023 | 43 | 169 | 1.7 | 4.3 | 0.00 | 0.00 | 0.00 | 97 | 1024.9 |
| 20260506160523 | 42 | 0 | 0.0 | 4.3 | 0.00 | 0.00 | 0.00 | 96 | 1025.0 |
| 20260506160045 | 42 | 169 | 1.7 | 4.3 | 0.00 | 0.00 | 0.00 | 96 | 1024.9 |
| 20260506155523 | 41 | 169 | 2.6 | 4.3 | 0.00 | 0.00 | 0.00 | 97 | 1024.9 |
| 20260506155021 | 41 | 172 | 1.7 | 3.5 | 0.00 | 0.00 | 0.00 | 96 | 1024.9 |
| 20260506154605 | 41 | 178 | 1.7 | 3.5 | 0.00 | 0.00 | 0.00 | 96 | 1024.9 |
| 20260506154023 | 41 | 226 | 0.9 | 2.6 | 0.00 | 0.00 | 0.00 | 96 | 1025.0 |
| 20260506153521 | 40 | 0 | 0.9 | 2.6 | 0.00 | 0.00 | 0.00 | 96 | 1024.9 |
| 20260506153043 | 40 | 0 | 0.0 | 2.6 | 0.00 | 0.00 | 0.00 | 96 | 1024.8 |
| 20260506152524 | 40 | 227 | 0.9 | 2.6 | 0.00 | 0.00 | 0.00 | 96 | 1024.8 |
| 20260506152024 | 40 | 227 | 0.9 | 2.6 | 0.00 | 0.00 | 0.00 | 96 | 1024.8 |
| 20260506151536 | 40 | 228 | 0.9 | 2.6 | 0.00 | 0.00 | 0.00 | 96 | 1024.7 |
| 20260506151024 | 39 | 228 | 0.9 | 2.6 | 0.00 | 0.00 | 0.00 | 96 | 1024.7 |
| 20260506150524 | 39 | 228 | 1.7 | 2.6 | 0.00 | 0.00 | 0.00 | 96 | 1024.7 |
| 20260506150044 | 39 | 228 | 0.9 | 1.7 | 0.00 | 0.00 | 0.00 | 96 | 1024.7 |
| 20260506145527 | 39 | 228 | 0.0 | 2.6 | 0.00 | 0.00 | 0.00 | 96 | 1024.7 |
| 20260506145024 | 39 | 228 | 0.0 | 3.5 | 0.00 | 0.00 | 0.00 | 96 | 1024.7 |
| 20260506144545 | 39 | 228 | 1.7 | 3.5 | 0.00 | 0.00 | 0.00 | 96 | 1024.7 |
| 20260506144023 | 39 | 280 | 0.9 | 2.6 | 0.00 | 0.00 | 0.00 | 96 | 1024.6 |
| 20260506143527 | 38 | 280 | 0.9 | 2.6 | 0.00 | 0.00 | 0.00 | 96 | 1024.5 |
| 20260506143053 | 38 | 0 | 0.0 | 0.0 | 0.00 | 0.00 | 0.00 | 96 | 1024.4 |
| 20260506142522 | 38 | 0 | 0.0 | 0.0 | 0.00 | 0.00 | 0.00 | 96 | 1024.5 |
| 20260506142023 | 38 | 0 | 0.0 | 1.7 | 0.00 | 0.00 | 0.00 | 96 | 1024.4 |
| 20260506141538 | 38 | 0 | 0.0 | 2.6 | 0.00 | 0.00 | 0.00 | 96 | 1024.4 |
| 20260506141024 | 38 | 282 | 0.9 | 2.6 | 0.00 | 0.00 | 0.00 | 96 | 1024.3 |
| 20260506140525 | 38 | 282 | 0.9 | 1.7 | 0.00 | 0.00 | 0.00 | 96 | 1024.2 |
| 20260506140036 | 37 | 282 | 0.9 | 1.7 | 0.00 | 0.00 | 0.00 | 96 | 1024.2 |
| 20260506135524 | 37 | 282 | 0.9 | 1.7 | 0.00 | 0.00 | 0.00 | 96 | 1024.0 |
| 20260506135023 | 37 | 282 | 0.9 | 1.7 | 0.00 | 0.00 | 0.00 | 96 | 1024.1 |
| 20260506134545 | 37 | 0 | 0.0 | 1.7 | 0.00 | 0.00 | 0.00 | 96 | 1024.1 |
| 20260506134025 | 37 | 0 | 0.0 | 1.7 | 0.00 | 0.00 | 0.00 | 96 | 1024.0 |
| 20260506133523 | 37 | 0 | 0.0 | 2.6 | 0.00 | 0.00 | 0.00 | 95 | 1023.8 |
| 20260506133042 | 37 | 282 | 0.9 | 2.6 | 0.00 | 0.00 | 0.00 | 95 | 1023.8 |
| 20260506132524 | 37 | 282 | 0.9 | 2.6 | 0.00 | 0.00 | 0.00 | 96 | 1023.8 |
| 20260506132021 | 37 | 0 | 0.0 | 0.0 | 0.00 | 0.00 | 0.00 | 96 | 1023.6 |
| 20260506131536 | 37 | 0 | 0.0 | 0.0 | 0.00 | 0.00 | 0.00 | 95 | 1023.6 |
| 20260506131023 | 37 | 0 | 0.0 | 0.0 | 0.00 | 0.00 | 0.00 | 95 | 1023.6 |
| 20260506130521 | 37 | 0 | 0.0 | 0.0 | 0.00 | 0.00 | 0.00 | 95 | 1023.4 |
| 20260506130036 | 37 | 0 | 0.0 | 0.0 | 0.00 | 0.00 | 0.00 | 95 | 1023.3 |
| 20260506125521 | 36 | 0 | 0.0 | 0.0 | 0.00 | 0.00 | 0.00 | 95 | 1023.3 |
| 20260506125026 | 36 | 0 | 0.0 | 0.0 | 0.00 | 0.00 | 0.00 | 95 | 1023.4 |
| 20260506124536 | 36 | 0 | 0.0 | 0.0 | 0.00 | 0.00 | 0.00 | 95 | 1023.3 |
| 20260506124023 | 36 | 0 | 0.0 | 0.9 | 0.00 | 0.00 | 0.00 | 95 | 1023.3 |
| 20260506123521 | 36 | 0 | 0.0 | 0.9 | 0.00 | 0.00 | 0.00 | 95 | 1023.1 |
| 20260506123044 | 36 | 0 | 0.0 | 0.0 | 0.00 | 0.00 | 0.00 | 95 | 1023.0 |
| 20260506122525 | 36 | 0 | 0.0 | 0.0 | 0.00 | 0.00 | 0.00 | 95 | 1022.9 |
| 20260506122022 | 36 | 0 | 0.0 | 0.0 | 0.00 | 0.00 | 0.00 | 95 | 1023.0 |
| 20260506121544 | 36 | 0 | 0.0 | 0.9 | 0.00 | 0.00 | 0.00 | 95 | 1022.9 |
| 20260506121024 | 36 | 0 | 0.0 | 0.9 | 0.00 | 0.00 | 0.00 | 95 | 1022.9 |
| 20260506120524 | 35 | 0 | 0.0 | 1.7 | 0.00 | 0.00 | 0.00 | 95 | 1022.7 |
| 20260506120052 | 35 | 0 | 0.0 | 1.7 | 0.00 | 0.00 | 0.00 | 95 | 1022.6 |
| 20260506115521 | 35 | 0 | 0.0 | 1.7 | 0.00 | 0.00 | 0.00 | 95 | 1022.5 |
| 20260506115021 | 35 | 0 | 0.0 | 0.9 | 0.00 | 0.00 | 0.00 | 95 | 1022.5 |
| 20260506114543 | 35 | 0 | 0.0 | 0.9 | 0.00 | 0.00 | 0.00 | 94 | 1022.5 |
| 20260506114021 | 35 | 288 | 0.0 | 0.9 | 0.00 | 0.00 | 0.00 | 95 | 1022.5 |
| 20260506113525 | 35 | 0 | 0.0 | 0.9 | 0.00 | 0.00 | 0.00 | 95 | 1022.4 |
| 20260506113044 | 35 | 0 | 0.0 | 0.0 | 0.00 | 0.00 | 0.00 | 94 | 1022.3 |
| 20260506112526 | 35 | 0 | 0.0 | 0.0 | 0.00 | 0.00 | 0.00 | 94 | 1022.2 |
| 20260506112028 | 35 | 0 | 0.0 | 0.0 | 0.00 | 0.00 | 0.00 | 94 | 1022.3 |
| 20260506111543 | 35 | 0 | 0.0 | 0.9 | 0.00 | 0.00 | 0.00 | 94 | 1022.2 |
| 20260506111023 | 35 | 0 | 0.0 | 0.9 | 0.00 | 0.00 | 0.00 | 94 | 1022.2 |
| 20260506110527 | 35 | 0 | 0.0 | 0.0 | 0.00 | 0.00 | 0.00 | 94 | 1022.2 |
| 20260506110044 | 35 | 0 | 0.0 | 0.9 | 0.00 | 0.00 | 0.00 | 94 | 1022.1 |
| 20260506105524 | 35 | 0 | 0.0 | 0.9 | 0.00 | 0.00 | 0.00 | 94 | 1022.0 |
| 20260506105021 | 35 | 0 | 0.0 | 0.9 | 0.00 | 0.00 | 0.00 | 94 | 1022.0 |
| 20260506104535 | 35 | 0 | 0.0 | 0.9 | 0.00 | 0.00 | 0.00 | 94 | 1022.0 |
| 20260506104025 | 35 | 0 | 0.0 | 0.0 | 0.00 | 0.00 | 0.00 | 94 | 1022.0 |
| 20260506103526 | 35 | 0 | 0.0 | 0.0 | 0.00 | 0.00 | 0.00 | 94 | 1021.8 |
| 20260506103035 | 36 | 0 | 0.0 | 0.9 | 0.00 | 0.00 | 0.00 | 94 | 1021.9 |
| 20260506102526 | 36 | 0 | 0.0 | 0.9 | 0.00 | 0.00 | 0.00 | 94 | 1021.6 |
| 20260506102024 | 36 | 0 | 0.0 | 0.9 | 0.00 | 0.00 | 0.00 | 94 | 1021.7 |
| 20260506101536 | 36 | 0 | 0.0 | 1.7 | 0.00 | 0.00 | 0.00 | 94 | 1021.6 |
| 20260506101023 | 36 | 0 | 0.0 | 1.7 | 0.00 | 0.00 | 0.00 | 93 | 1021.7 |
| 20260506100523 | 36 | 0 | 0.0 | 1.7 | 0.00 | 0.00 | 0.00 | 93 | 1021.5 |
| 20260506100046 | 36 | 0 | 0.0 | 1.7 | 0.00 | 0.00 | 0.00 | 93 | 1021.5 |
| 20260506095523 | 36 | 0 | 0.0 | 0.9 | 0.00 | 0.00 | 0.00 | 94 | 1021.4 |
| 20260506095023 | 36 | 288 | 0.0 | 0.9 | 0.00 | 0.00 | 0.00 | 93 | 1021.4 |
| 20260506094552 | 37 | 0 | 0.0 | 0.9 | 0.00 | 0.00 | 0.00 | 94 | 1021.4 |
| 20260506094023 | 37 | 0 | 0.0 | 0.0 | 0.00 | 0.00 | 0.00 | 94 | 1021.4 |
| 20260506093523 | 37 | 0 | 0.0 | 0.9 | 0.00 | 0.00 | 0.00 | 94 | 1021.3 |
| 20260506093037 | 37 | 0 | 0.0 | 2.6 | 0.00 | 0.00 | 0.00 | 94 | 1021.1 |
| 20260506092524 | 37 | 0 | 0.0 | 2.6 | 0.00 | 0.00 | 0.00 | 94 | 1021.0 |
| 20260506092024 | 37 | 288 | 0.9 | 2.6 | 0.00 | 0.00 | 0.00 | 94 | 1021.0 |
| 20260506091545 | 37 | 0 | 0.0 | 0.9 | 0.00 | 0.00 | 0.00 | 93 | 1021.0 |
| 20260506091024 | 38 | 0 | 0.0 | 0.9 | 0.00 | 0.00 | 0.00 | 93 | 1020.9 |
| 20260506090524 | 38 | 0 | 0.0 | 0.9 | 0.00 | 0.00 | 0.00 | 93 | 1020.9 |
| 20260506090037 | 38 | 0 | 0.0 | 1.7 | 0.00 | 0.00 | 0.00 | 93 | 1020.9 |
| 20260506085523 | 38 | 0 | 0.0 | 1.7 | 0.00 | 0.00 | 0.00 | 94 | 1020.7 |
| 20260506085023 | 38 | 0 | 0.0 | 1.7 | 0.00 | 0.00 | 0.00 | 93 | 1020.7 |
| 20260506084546 | 38 | 0 | 0.0 | 0.0 | 0.00 | 0.00 | 0.00 | 93 | 1020.7 |
| 20260506084023 | 38 | 0 | 0.0 | 0.0 | 0.00 | 0.00 | 0.00 | 93 | 1020.6 |
| 20260506083523 | 38 | 0 | 0.0 | 0.9 | 0.00 | 0.00 | 0.00 | 93 | 1020.5 |
| 20260506083041 | 38 | 0 | 0.0 | 0.9 | 0.00 | 0.00 | 0.00 | 93 | 1020.5 |
| 20260506082523 | 39 | 0 | 0.0 | 0.9 | 0.00 | 0.00 | 0.00 | 93 | 1020.5 |
| 20260506082022 | 39 | 0 | 0.0 | 0.9 | 0.00 | 0.00 | 0.00 | 93 | 1020.4 |
| 20260506081538 | 39 | 0 | 0.0 | 0.9 | 0.00 | 0.00 | 0.00 | 93 | 1020.5 |
| 20260506081024 | 39 | 0 | 0.0 | 0.9 | 0.00 | 0.00 | 0.00 | 93 | 1020.5 |
| 20260506080524 | 39 | 286 | 0.0 | 0.9 | 0.00 | 0.00 | 0.00 | 93 | 1020.5 |
| 20260506073524 | 40 | 0 | 0.0 | 1.7 | 0.00 | 0.00 | 0.00 | 92 | 1020.1 |
| 20260506073046 | 40 | 0 | 0.0 | 1.7 | 0.00 | 0.00 | 0.00 | 92 | 1020.1 |
| 20260506072523 | 40 | 286 | 0.0 | 1.7 | 0.00 | 0.00 | 0.00 | 93 | 1020.1 |
| 20260506072022 | 40 | 286 | 0.0 | 1.7 | 0.00 | 0.00 | 0.00 | 92 | 1020.0 |
| 20260506071540 | 41 | 286 | 0.0 | 1.7 | 0.00 | 0.00 | 0.00 | 92 | 1019.8 |
| 20260506071022 | 41 | 0 | 0.0 | 0.0 | 0.00 | 0.00 | 0.00 | 92 | 1019.8 |
| 20260506070524 | 41 | 0 | 0.0 | 0.0 | 0.00 | 0.00 | 0.00 | 91 | 1019.8 |
| 20260506062024 | 44 | 0 | 0.0 | 0.0 | 0.00 | 0.00 | 0.00 | 90 | 1019.3 |
| 20260506061543 | 44 | 0 | 0.0 | 0.0 | 0.00 | 0.00 | 0.00 | 90 | 1019.2 |
| 20260506061028 | 44 | 0 | 0.0 | 0.0 | 0.00 | 0.00 | 0.00 | 89 | 1019.2 |
| 20260506060522 | 44 | 0 | 0.0 | 0.0 | 0.00 | 0.00 | 0.00 | 89 | 1019.1 |
| 20260506051024 | 48 | 0 | 0.9 | 1.7 | 0.00 | 0.04 | 0.00 | 86 | 1018.6 |
| 20260506050523 | 48 | 286 | 0.0 | 1.7 | 0.00 | 0.04 | 0.00 | 86 | 1018.4 |
| 20260506045023 | 49 | 0 | 0.0 | 0.9 | 0.00 | 0.15 | 0.00 | 84 | 1018.3 |
| 20260506044546 | 49 | 0 | 0.0 | 0.9 | 0.00 | 0.15 | 0.00 | 84 | 1018.2 |
| 20260506044021 | 50 | 0 | 0.0 | 0.9 | 0.00 | 0.15 | 0.00 | 84 | 1018.2 |
| 20260506043529 | 50 | 286 | 0.0 | 0.9 | 0.00 | 0.15 | 0.00 | 84 | 1018.0 |
| 20260506043039 | 50 | 0 | 0.0 | 1.7 | 0.00 | 0.15 | 0.00 | 83 | 1018.0 |
| 20260506042523 | 50 | 0 | 0.0 | 1.7 | 0.00 | 0.15 | 0.00 | 83 | 1018.0 |
| 20260506042023 | 50 | 0 | 0.0 | 2.6 | 0.00 | 0.15 | 0.00 | 82 | 1018.0 |
| 20260506041536 | 50 | 286 | 0.9 | 2.6 | 0.00 | 0.15 | 0.00 | 81 | 1017.9 |
| 20260506041023 | 50 | 0 | 0.0 | 1.7 | 0.00 | 0.15 | 0.00 | 82 | 1017.8 |
| 20260506040523 | 50 | 286 | 0.0 | 1.7 | 0.00 | 0.15 | 0.00 | 81 | 1017.8 |
| 20260506040058 | 50 | 0 | 0.0 | 1.7 | 0.00 | 0.15 | 0.00 | 81 | 1017.5 |
| 20260506035523 | 51 | 0 | 0.0 | 1.7 | 0.00 | 0.31 | 0.00 | 80 | 1017.5 |
| 20260506035024 | 51 | 287 | 0.0 | 1.7 | 0.00 | 0.31 | 0.00 | 79 | 1017.5 |
| 20260506034548 | 51 | 0 | 0.9 | 1.7 | 0.00 | 0.31 | 0.00 | 78 | 1017.4 |
| 20260506034024 | 52 | 0 | 0.0 | 1.7 | 0.00 | 0.31 | 0.00 | 78 | 1017.3 |
| 20260506033523 | 52 | 287 | 0.9 | 1.7 | 0.00 | 0.31 | 0.00 | 78 | 1017.0 |
| 20260506033042 | 52 | 0 | 0.0 | 1.7 | 0.00 | 0.31 | 0.00 | 77 | 1016.9 |
| 20260506032523 | 53 | 0 | 0.0 | 1.7 | 0.00 | 0.31 | 0.00 | 76 | 1016.7 |
| 20260506032023 | 53 | 0 | 0.0 | 2.6 | 0.00 | 0.31 | 0.00 | 75 | 1016.7 |
| 20260506031552 | 54 | 0 | 0.9 | 2.6 | 0.00 | 0.31 | 0.00 | 74 | 1016.5 |
| 20260506031025 | 54 | 287 | 0.9 | 2.6 | 0.00 | 0.31 | 0.00 | 74 | 1016.5 |
| 20260506030522 | 55 | 287 | 0.9 | 2.6 | 0.00 | 0.31 | 0.00 | 72 | 1016.3 |
| 20260506030044 | 56 | 286 | 0.0 | 1.7 | 0.00 | 0.31 | 0.00 | 70 | 1016.2 |
| 20260506025522 | 56 | 0 | 0.0 | 2.6 | 0.00 | 0.44 | 0.00 | 69 | 1016.1 |
| 20260506025022 | 56 | 280 | 0.0 | 2.6 | 0.00 | 0.44 | 0.00 | 69 | 1016.1 |
| 20260506024546 | 57 | 280 | 0.0 | 2.6 | 0.00 | 0.44 | 0.00 | 68 | 1016.1 |
| 20260506024023 | 57 | 0 | 0.0 | 1.7 | 0.00 | 0.44 | 0.00 | 68 | 1016.0 |
| 20260506023523 | 58 | 0 | 0.0 | 1.7 | 0.00 | 0.44 | 0.00 | 67 | 1016.0 |
| 20260506023042 | 58 | 0 | 0.0 | 1.7 | 0.00 | 0.44 | 0.00 | 67 | 1016.0 |
| 20260506022526 | 58 | 0 | 0.0 | 1.7 | 0.00 | 0.44 | 0.00 | 65 | 1015.8 |
| 20260506022023 | 59 | 0 | 0.0 | 1.7 | 0.00 | 0.44 | 0.00 | 65 | 1015.6 |
| 20260506021540 | 59 | 0 | 0.9 | 1.7 | 0.00 | 0.44 | 0.00 | 63 | 1015.5 |
| 20260506021022 | 59 | 0 | 0.0 | 1.7 | 0.00 | 0.44 | 0.00 | 62 | 1015.6 |
| 20260506020523 | 60 | 315 | 0.0 | 2.6 | 0.00 | 0.44 | 0.00 | 62 | 1015.4 |
| 20260506020038 | 60 | 300 | 0.0 | 2.6 | 0.00 | 0.44 | 0.00 | 61 | 1015.4 |
| 20260506015526 | 60 | 0 | 0.0 | 4.3 | 0.00 | 0.69 | 0.00 | 62 | 1015.3 |
| 20260506015023 | 61 | 222 | 0.9 | 4.3 | 0.00 | 0.69 | 0.00 | 61 | 1015.3 |
| 20260506014541 | 61 | 244 | 0.9 | 4.3 | 0.00 | 0.69 | 0.00 | 60 | 1015.4 |
| 20260506014023 | 61 | 267 | 0.0 | 3.5 | 0.00 | 0.69 | 0.00 | 62 | 1015.2 |
| 20260506013525 | 61 | 232 | 0.9 | 3.5 | 0.00 | 0.69 | 0.00 | 60 | 1015.2 |
| 20260506013045 | 62 | 37 | 0.9 | 3.5 | 0.00 | 0.69 | 0.00 | 60 | 1015.2 |
| 20260506012524 | 62 | 223 | 0.9 | 3.5 | 0.00 | 0.69 | 0.00 | 55 | 1015.1 |
| 20260506012025 | 62 | 216 | 0.0 | 1.7 | 0.00 | 0.69 | 0.00 | 56 | 1015.2 |
| 20260506011540 | 62 | 0 | 0.0 | 2.6 | 0.00 | 0.69 | 0.00 | 54 | 1015.2 |
| 20260506011023 | 62 | 0 | 0.0 | 3.5 | 0.00 | 0.69 | 0.00 | 53 | 1015.1 |
| 20260506010522 | 62 | 203 | 0.9 | 3.5 | 0.00 | 0.69 | 0.00 | 49 | 1015.0 |
| 20260506010043 | 62 | 180 | 0.9 | 3.5 | 0.00 | 0.69 | 0.00 | 51 | 1015.0 |
| 20260506005526 | 61 | 209 | 0.9 | 3.5 | 0.00 | 0.70 | 0.00 | 54 | 1015.0 |
| 20260506005025 | 60 | 0 | 0.0 | 0.9 | 0.00 | 0.70 | 0.00 | 56 | 1015.1 |
| 20260506004548 | 61 | 0 | 0.0 | 2.6 | 0.00 | 0.70 | 0.00 | 56 | 1015.2 |
| 20260506004029 | 61 | 0 | 0.0 | 2.6 | 0.00 | 0.70 | 0.00 | 56 | 1015.0 |
| 20260506003524 | 62 | 188 | 0.0 | 2.6 | 0.00 | 0.70 | 0.00 | 50 | 1014.9 |
| 20260506003045 | 62 | 0 | 0.0 | 1.7 | 0.00 | 0.70 | 0.00 | 54 | 1015.0 |
| 20260506002522 | 62 | 0 | 0.0 | 1.7 | 0.00 | 0.70 | 0.00 | 55 | 1015.0 |
| 20260506002023 | 62 | 0 | 0.0 | 1.7 | 0.00 | 0.70 | 0.00 | 54 | 1015.0 |
| 20260506001544 | 62 | 205 | 0.0 | 2.6 | 0.00 | 0.70 | 0.00 | 50 | 1015.0 |
| 20260506001023 | 63 | 205 | 0.0 | 2.6 | 0.00 | 0.70 | 0.00 | 53 | 1015.0 |
| 20260506000523 | 62 | 286 | 0.0 | 2.6 | 0.00 | 0.70 | 0.00 | 53 | 1015.0 |
| 20260506000044 | 62 | 0 | 0.0 | 2.6 | 0.00 | 0.70 | 0.00 | 53 | 1015.0 |
| 20260505235525 | 62 | 48 | 0.0 | 2.6 | 0.00 | 0.70 | 0.00 | 51 | 1015.0 |
| 20260505235023 | 62 | 0 | 0.0 | 6.1 | 0.00 | 0.70 | 0.00 | 51 | 1015.0 |
| 20260505234550 | 63 | 46 | 0.9 | 7.0 | 0.00 | 0.70 | 0.00 | 47 | 1014.9 |
| 20260505234026 | 64 | 42 | 1.7 | 7.0 | 0.00 | 0.70 | 0.00 | 49 | 1014.9 |
| 20260505233526 | 64 | 144 | 1.7 | 4.3 | 0.00 | 0.70 | 0.00 | 47 | 1014.9 |
| 20260505233050 | 65 | 140 | 1.7 | 6.1 | 0.00 | 0.70 | 0.00 | 44 | 1014.9 |
| 20260505232523 | 65 | 122 | 2.6 | 7.8 | 0.00 | 0.70 | 0.00 | 44 | 1015.0 |
| 20260505232026 | 66 | 72 | 0.9 | 7.8 | 0.00 | 0.70 | 0.00 | 47 | 1015.0 |
| 20260505231557 | 67 | 117 | 1.7 | 7.0 | 0.00 | 0.70 | 0.00 | 44 | 1015.0 |
| 20260505231024 | 67 | 323 | 1.7 | 5.2 | 0.00 | 0.70 | 0.00 | 45 | 1014.9 |
| 20260505230523 | 67 | 360 | 1.7 | 4.3 | 0.00 | 0.70 | 0.00 | 46 | 1015.0 |
| 20260505230044 | 66 | 194 | 1.7 | 6.1 | 0.00 | 0.70 | 0.00 | 45 | 1015.0 |
| 20260505225527 | 66 | 155 | 1.7 | 7.8 | 0.00 | 0.70 | 0.00 | 49 | 1015.1 |
| 20260505225026 | 65 | 164 | 1.7 | 7.8 | 0.00 | 0.70 | 0.00 | 48 | 1015.0 |
| 20260505224544 | 65 | 134 | 3.5 | 7.8 | 0.00 | 0.70 | 0.00 | 45 | 1015.1 |
| 20260505224026 | 64 | 141 | 1.7 | 9.6 | 0.00 | 0.70 | 0.00 | 51 | 1015.2 |
| 20260505223529 | 65 | 225 | 5.2 | 9.6 | 0.00 | 0.70 | 0.00 | 44 | 1015.3 |
| 20260505223049 | 65 | 145 | 1.7 | 6.1 | 0.00 | 0.70 | 0.00 | 46 | 1015.3 |
| 20260505222530 | 65 | 140 | 2.6 | 6.1 | 0.00 | 0.70 | 0.00 | 48 | 1015.4 |
| 20260505222026 | 65 | 168 | 2.6 | 7.0 | 0.00 | 0.70 | 0.00 | 46 | 1015.4 |
| 20260505221536 | 65 | 17 | 2.6 | 7.8 | 0.00 | 0.70 | 0.00 | 49 | 1015.4 |
| 20260505221022 | 64 | 202 | 2.6 | 7.8 | 0.00 | 0.70 | 0.00 | 50 | 1015.4 |
| 20260505220525 | 64 | 155 | 2.6 | 7.8 | 0.00 | 0.70 | 0.00 | 46 | 1015.6 |
| 20260505220044 | 64 | 183 | 2.6 | 7.8 | 0.00 | 0.70 | 0.00 | 48 | 1015.6 |
| 20260505215523 | 64 | 172 | 2.6 | 7.0 | 0.00 | 0.72 | 0.00 | 51 | 1015.6 |
| 20260505215023 | 64 | 147 | 2.6 | 8.7 | 0.00 | 0.72 | 0.00 | 50 | 1015.6 |
| 20260505214549 | 63 | 93 | 2.6 | 8.7 | 0.00 | 0.72 | 0.00 | 53 | 1015.6 |
| 20260505214027 | 63 | 165 | 3.5 | 7.8 | 0.00 | 0.72 | 0.00 | 51 | 1015.7 |
| 20260505213523 | 63 | 271 | 2.6 | 7.0 | 0.00 | 0.72 | 0.00 | 52 | 1015.8 |
| 20260505213042 | 63 | 109 | 2.6 | 7.0 | 0.00 | 0.72 | 0.00 | 52 | 1015.7 |
| 20260505212523 | 63 | 113 | 2.6 | 7.0 | 0.00 | 0.72 | 0.00 | 58 | 1015.8 |
| 20260505212024 | 62 | 96 | 3.5 | 7.8 | 0.00 | 0.72 | 0.00 | 58 | 1015.7 |
| 20260505211537 | 61 | 126 | 1.7 | 9.6 | 0.00 | 0.72 | 0.00 | 55 | 1015.9 |
| 20260505211026 | 62 | 134 | 2.6 | 9.6 | 0.00 | 0.72 | 0.00 | 56 | 1015.8 |
| 20260505210522 | 62 | 108 | 2.6 | 9.6 | 0.00 | 0.72 | 0.00 | 62 | 1015.8 |
| 20260505210045 | 61 | 55 | 4.3 | 9.6 | 0.00 | 0.72 | 0.00 | 58 | 1015.8 |
| 20260505205530 | 61 | 178 | 3.5 | 7.8 | 0.00 | 0.81 | 0.00 | 65 | 1015.8 |
| 20260505205027 | 60 | 163 | 4.3 | 7.8 | 0.00 | 0.81 | 0.00 | 60 | 1015.9 |
| 20260505204546 | 60 | 192 | 3.5 | 7.8 | 0.00 | 0.81 | 0.00 | 63 | 1015.9 |
| 20260505204029 | 60 | 102 | 3.5 | 7.8 | 0.00 | 0.81 | 0.00 | 63 | 1015.7 |
| 20260505203522 | 60 | 129 | 2.6 | 7.8 | 0.00 | 0.81 | 0.00 | 66 | 1015.8 |
| 20260505203047 | 59 | 153 | 1.7 | 7.8 | 0.00 | 0.81 | 0.00 | 65 | 1015.8 |
| 20260505202522 | 58 | 180 | 2.6 | 6.1 | 0.00 | 0.81 | 0.00 | 65 | 1015.8 |
| 20260505202025 | 57 | 0 | 0.9 | 3.5 | 0.00 | 0.81 | 0.00 | 68 | 1015.9 |
| 20260505201538 | 57 | 117 | 0.0 | 7.0 | 0.00 | 0.81 | 0.00 | 71 | 1015.9 |
| 20260505201023 | 57 | 116 | 1.7 | 7.0 | 0.00 | 0.81 | 0.00 | 72 | 1015.9 |
| 20260505200522 | 56 | 186 | 2.6 | 7.0 | 0.00 | 0.81 | 0.00 | 73 | 1015.9 |
| 20260505200042 | 55 | 144 | 2.6 | 7.0 | 0.00 | 0.81 | 0.00 | 73 | 1015.9 |
| 20260505195525 | 55 | 134 | 3.5 | 7.0 | 0.00 | 0.81 | 0.00 | 73 | 1016.1 |
| 20260505195022 | 55 | 138 | 3.5 | 6.1 | 0.00 | 0.81 | 0.00 | 73 | 1016.2 |
| 20260505194538 | 54 | 157 | 2.6 | 6.1 | 0.00 | 0.81 | 0.00 | 74 | 1016.2 |
| 20260505194023 | 54 | 157 | 1.7 | 6.1 | 0.00 | 0.81 | 0.00 | 79 | 1016.2 |
| 20260505193523 | 54 | 142 | 1.7 | 6.1 | 0.00 | 0.81 | 0.00 | 79 | 1016.2 |
| 20260505193042 | 54 | 166 | 1.7 | 6.1 | 0.00 | 0.81 | 0.00 | 80 | 1016.2 |
| 20260505192526 | 53 | 134 | 2.6 | 7.0 | 0.00 | 0.81 | 0.00 | 78 | 1016.2 |
| 20260505192022 | 53 | 154 | 3.5 | 7.0 | 0.00 | 0.81 | 0.00 | 82 | 1016.2 |
| 20260505191542 | 51 | 159 | 2.6 | 6.1 | 0.00 | 0.81 | 0.00 | 85 | 1016.2 |
| 20260505191021 | 51 | 131 | 2.6 | 6.1 | 0.00 | 0.81 | 0.00 | 83 | 1016.2 |